TimeEST,TemperatureF,Dew PointF,Humidity,Sea Level PressureIn,VisibilityMPH,Wind Direction,Wind SpeedMPH,Gust SpeedMPH,PrecipitationIn,Events,Conditions,WindDirDegrees,DateUTC
12:15 AM,17.6,12.2,79,29.53,10.0,North,9.2,-,N/A,,Overcast,10,2012-12-30 05:15:00
12:35 AM,17.6,10.4,73,29.53,10.0,North,8.1,-,N/A,,Overcast,10,2012-12-30 05:35:00
12:55 AM,17.6,12.2,79,29.52,10.0,North,11.5,-,N/A,,Overcast,360,2012-12-30 05:55:00
1:15 AM,17.6,10.4,73,29.51,10.0,North,12.7,-,N/A,,Overcast,360,2012-12-30 06:15:00
1:35 AM,17.6,12.2,79,29.52,10.0,North,10.4,-,N/A,,Overcast,10,2012-12-30 06:35:00
1:55 AM,17.6,10.4,73,29.50,5.0,North,12.7,-,N/A,,Overcast,360,2012-12-30 06:55:00
2:15 AM,17.6,14.0,86,29.50,3.0,North,11.5,-,N/A,,Overcast,360,2012-12-30 07:15:00
2:35 AM,17.6,12.2,79,29.48,2.5,North,11.5,-,N/A,,Overcast,360,2012-12-30 07:35:00
2:55 AM,17.6,12.2,79,29.47,2.0,North,12.7,-,N/A,,Overcast,360,2012-12-30 07:55:00
3:35 AM,17.6,12.2,79,29.45,2.5,North,12.7,-,N/A,,Overcast,360,2012-12-30 08:35:00
3:55 AM,17.6,12.2,79,29.44,3.0,North,15.0,-,N/A,,Overcast,360,2012-12-30 08:55:00
4:15 AM,17.6,12.2,79,29.42,2.0,NNW,13.8,-,N/A,,Overcast,340,2012-12-30 09:15:00
4:35 AM,17.6,14.0,86,29.41,1.8,North,15.0,-,N/A,,Overcast,360,2012-12-30 09:35:00
4:55 AM,17.6,14.0,86,29.40,1.5,NNW,15.0,-,N/A,,Overcast,340,2012-12-30 09:55:00
5:15 AM,17.6,14.0,86,29.39,1.2,NNW,17.3,-,N/A,,Overcast,340,2012-12-30 10:15:00
5:35 AM,19.4,15.8,86,29.39,1.2,NNW,19.6,-,N/A,,Overcast,340,2012-12-30 10:35:00
5:55 AM,19.4,14.0,80,29.40,1.8,North,17.3,-,N/A,,Overcast,360,2012-12-30 10:55:00
6:15 AM,19.4,15.8,86,29.39,1.5,NNW,18.4,-,N/A,,Overcast,340,2012-12-30 11:15:00
6:35 AM,19.4,15.8,86,29.39,1.8,NNW,18.4,-,N/A,,Overcast,330,2012-12-30 11:35:00
6:55 AM,19.4,14.0,80,29.38,1.5,NNW,20.7,25.3,N/A,,Overcast,330,2012-12-30 11:55:00
7:15 AM,19.4,14.0,80,29.37,1.0,NNW,21.9,27.6,N/A,,Overcast,330,2012-12-30 12:15:00
7:35 AM,19.4,14.0,80,29.36,1.2,NNW,19.6,-,N/A,,Overcast,330,2012-12-30 12:35:00
7:55 AM,19.4,15.8,86,29.35,1.5,NNW,20.7,26.5,N/A,,Overcast,330,2012-12-30 12:55:00
8:15 AM,19.4,14.0,80,29.35,1.2,NNW,19.6,24.2,N/A,,Overcast,330,2012-12-30 13:15:00
8:35 AM,19.4,15.8,86,29.35,1.0,NNW,21.9,31.1,N/A,,Overcast,330,2012-12-30 13:35:00
8:55 AM,19.4,15.8,86,29.34,1.0,NNW,21.9,28.8,N/A,,Overcast,330,2012-12-30 13:55:00
9:15 AM,19.4,15.8,86,29.34,1.0,NNW,21.9,28.8,N/A,,Overcast,330,2012-12-30 14:15:00
9:35 AM,21.2,15.8,80,29.35,1.5,NNW,24.2,32.2,N/A,,Overcast,340,2012-12-30 14:35:00
9:55 AM,21.2,15.8,80,29.35,1.8,NNW,21.9,29.9,N/A,,Overcast,330,2012-12-30 14:55:00
10:15 AM,21.2,15.8,80,29.34,1.0,NNW,24.2,29.9,N/A,,Overcast,330,2012-12-30 15:15:00
10:35 AM,21.2,15.8,80,29.33,0.8,NNW,20.7,31.1,N/A,,Overcast,330,2012-12-30 15:35:00
11:15 AM,21.2,15.8,80,29.32,0.8,NNW,23.0,29.9,N/A,,Overcast,330,2012-12-30 16:15:00
11:35 AM,21.2,15.8,80,29.31,0.8,NW,18.4,33.4,N/A,,Overcast,320,2012-12-30 16:35:00
11:55 AM,21.2,15.8,80,29.31,1.2,NW,21.9,27.6,N/A,,Overcast,310,2012-12-30 16:55:00
12:15 PM,21.2,12.2,68,29.31,1.8,NW,24.2,31.1,N/A,,Overcast,320,2012-12-30 17:15:00
12:35 PM,21.2,14.0,74,29.30,2.5,NW,21.9,32.2,N/A,,Overcast,320,2012-12-30 17:35:00
12:55 PM,19.4,15.8,86,29.31,0.2,NW,21.9,32.2,N/A,,Overcast,320,2012-12-30 17:55:00
1:35 PM,19.4,14.0,80,29.31,0.2,NW,19.6,39.1,N/A,,Overcast,320,2012-12-30 18:35:00
1:55 PM,19.4,10.4,68,29.31,2.5,NW,26.5,35.7,N/A,,Overcast,320,2012-12-30 18:55:00
2:15 PM,19.4,10.4,68,29.32,2.0,NW,23.0,34.5,N/A,,Overcast,310,2012-12-30 19:15:00
2:35 PM,17.6,10.4,73,29.33,2.5,NNW,25.3,33.4,N/A,,Overcast,330,2012-12-30 19:35:00
2:55 PM,17.6,10.4,73,29.33,3.0,NW,19.6,32.2,N/A,,Overcast,320,2012-12-30 19:55:00
3:15 PM,17.6,8.6,68,29.34,2.5,NW,19.6,33.4,N/A,,Overcast,310,2012-12-30 20:15:00
3:35 PM,17.6,10.4,73,29.35,3.0,NW,24.2,29.9,N/A,,Overcast,310,2012-12-30 20:35:00
4:15 PM,17.6,8.6,68,29.36,3.0,NW,20.7,29.9,N/A,,Mostly Cloudy,310,2012-12-30 21:15:00
4:35 PM,17.6,10.4,73,29.37,6.0,WNW,17.3,27.6,N/A,,Overcast,300,2012-12-30 21:35:00
4:55 PM,17.6,10.4,73,29.38,5.0,WNW,15.0,23.0,N/A,,Overcast,300,2012-12-30 21:55:00
5:15 PM,17.6,10.4,73,29.40,7.0,WNW,17.3,24.2,N/A,,Mostly Cloudy,300,2012-12-30 22:15:00
5:35 PM,17.6,10.4,73,29.40,6.0,WNW,17.3,26.5,N/A,,Overcast,300,2012-12-30 22:35:00
5:55 PM,17.6,8.6,68,29.41,5.0,WNW,16.1,27.6,N/A,,Overcast,300,2012-12-30 22:55:00
6:35 PM,17.6,6.8,63,29.43,10.0,WNW,15.0,24.2,N/A,,Overcast,300,2012-12-30 23:35:00
6:55 PM,17.6,8.6,68,29.43,10.0,WNW,15.0,23.0,N/A,,Overcast,300,2012-12-30 23:55:00
7:15 PM,17.6,8.6,68,29.44,10.0,WNW,13.8,23.0,N/A,,Overcast,300,2012-12-31 00:15:00
7:35 PM,17.6,8.6,68,29.44,10.0,WNW,15.0,20.7,N/A,,Overcast,300,2012-12-31 00:35:00
8:15 PM,15.8,6.8,68,29.44,10.0,WNW,18.4,26.5,N/A,,Overcast,290,2012-12-31 01:15:00
8:35 PM,15.8,6.8,68,29.44,10.0,WNW,11.5,24.2,N/A,,Overcast,300,2012-12-31 01:35:00
8:55 PM,15.8,6.8,68,29.45,10.0,WNW,17.3,25.3,N/A,,Mostly Cloudy,290,2012-12-31 01:55:00
9:15 PM,14.0,6.8,73,29.45,10.0,WNW,19.6,28.8,N/A,,Mostly Cloudy,290,2012-12-31 02:15:00
9:35 PM,14.0,6.8,73,29.45,8.0,WNW,20.7,29.9,N/A,,Scattered Clouds,290,2012-12-31 02:35:00
9:55 PM,14.0,5.0,67,29.46,10.0,WNW,23.0,35.7,N/A,,Partly Cloudy,290,2012-12-31 02:55:00
10:35 PM,14.0,3.2,62,29.48,10.0,WNW,19.6,24.2,N/A,,Mostly Cloudy,290,2012-12-31 03:35:00
10:55 PM,12.2,3.2,67,29.49,10.0,WNW,12.7,23.0,N/A,,Overcast,290,2012-12-31 03:55:00
11:15 PM,12.2,3.2,67,29.50,10.0,WNW,13.8,21.9,N/A,,Overcast,290,2012-12-31 04:15:00
11:35 PM,12.2,3.2,67,29.50,10.0,WNW,11.5,19.6,N/A,,Overcast,290,2012-12-31 04:35:00
11:55 PM,12.2,3.2,67,29.50,10.0,WNW,10.4,17.3,N/A,,Overcast,290,2012-12-31 04:55:00